• In Hungary
  • List of Countries
  • For 7 days
  • Water Temperature
  • Satellite Maps
  • Weather Map
  • News
  • Weather Widgets
  • user-avatar
    Login

    Hourly Weather Sprowa

    Today, 23 July, Monday

    Time Temperature Precipitation Wind Pressure Humidity
    00:00 +20°C° 0 mm 2 mps 735 mmHg 76%
    01:00 +19°C° 0 mm 2 mps 735 mmHg 77%
    02:00 +19°C° 0 mm 2 mps 735 mmHg 79%
    03:00 +18°C° 0 mm 2 mps 735 mmHg 82%
    04:00 +18°C° 0 mm 2 mps 735 mmHg 84%
    05:00 +19°C° 0.1 mm 2 mps 735 mmHg 81%
    06:00 +20°C° 0.1 mm 2 mps 735 mmHg 78%
    07:00 +22°C° 0.1 mm 3 mps 735 mmHg 75%
    08:00 +24°C° 0.1 mm 3 mps 735 mmHg 71%
    09:00 +24°C° 0.1 mm 3 mps 735 mmHg 67%
    10:00 +25°C° 0.1 mm 4 mps 735 mmHg 63%
    11:00 +26°C° 0 mm 4 mps 735 mmHg 59%
    12:00 +27°C° 0 mm 4 mps 735 mmHg 55%
    13:00 +28°C° 0 mm 5 mps 735 mmHg 51%
    14:00 +28°C° 0.1 mm 5 mps 735 mmHg 52%
    15:00 +28°C° 0.1 mm 5 mps 735 mmHg 52%
    16:00 +28°C° 0.1 mm 5 mps 735 mmHg 53%
    17:00 +26°C° 0.1 mm 5 mps 735 mmHg 58%
    18:00 +25°C° 0.1 mm 4 mps 735 mmHg 64%
    19:00 +24°C° 0.1 mm 3 mps 735 mmHg 69%
    20:00 +22°C° 0 mm 3 mps 735 mmHg 71%
    21:00 +21°C° 0 mm 3 mps 736 mmHg 73%
    22:00 +20°C° 0 mm 3 mps 736 mmHg 76%
    23:00 +19°C° 0 mm 3 mps 736 mmHg 79%

    Tomorrow, 24 July, Tuesday

    Time Temperature Precipitation Wind Pressure Humidity
    00:00 +19°C° 0 mm 3 mps 736 mmHg 81%
    01:00 +18°C° 0 mm 3 mps 736 mmHg 84%
    02:00 +18°C° 0 mm 3 mps 736 mmHg 86%
    03:00 +17°C° 0 mm 3 mps 736 mmHg 88%
    04:00 +17°C° 0 mm 3 mps 736 mmHg 90%
    05:00 +18°C° 0 mm 3 mps 736 mmHg 84%
    06:00 +19°C° 0 mm 3 mps 736 mmHg 78%
    07:00 +21°C° 0 mm 4 mps 736 mmHg 72%
    08:00 +22°C° 0 mm 4 mps 737 mmHg 66%
    09:00 +25°C° 0 mm 4 mps 737 mmHg 60%
    10:00 +26°C° 0 mm 5 mps 737 mmHg 54%
    11:00 +27°C° 0 mm 5 mps 736 mmHg 52%
    12:00 +27°C° 0 mm 5 mps 736 mmHg 50%
    13:00 +28°C° 0 mm 5 mps 736 mmHg 48%
    14:00 +28°C° 0 mm 5 mps 736 mmHg 49%
    15:00 +28°C° 0 mm 5 mps 735 mmHg 50%
    16:00 +28°C° 0 mm 5 mps 735 mmHg 50%
    17:00 +26°C° 0 mm 4 mps 735 mmHg 57%
    18:00 +25°C° 0 mm 3 mps 735 mmHg 63%
    19:00 +24°C° 0 mm 3 mps 735 mmHg 69%
    20:00 +23°C° 0 mm 2 mps 735 mmHg 72%
    21:00 +21°C° 0 mm 2 mps 736 mmHg 75%
    22:00 +20°C° 0 mm 2 mps 736 mmHg 78%
    23:00 +19°C° 0 mm 2 mps 736 mmHg 80%

    Day after tomorrow, 25 July, Wednesday

    Time Temperature Precipitation Wind Pressure Humidity
    00:00 +19°C° 0 mm 2 mps 736 mmHg 82%
    01:00 +18°C° 0 mm 2 mps 735 mmHg 84%
    02:00 +18°C° 0 mm 2 mps 736 mmHg 86%
    03:00 +17°C° 0 mm 2 mps 736 mmHg 89%
    04:00 +17°C° 0 mm 2 mps 736 mmHg 91%
    05:00 +18°C° 0 mm 2 mps 736 mmHg 86%
    06:00 +20°C° 0 mm 2 mps 736 mmHg 81%
    07:00 +21°C° 0 mm 2 mps 736 mmHg 76%
    08:00 +24°C° 0 mm 3 mps 736 mmHg 69%
    09:00 +25°C° 0 mm 3 mps 736 mmHg 61%
    10:00 +26°C° 0 mm 3 mps 736 mmHg 54%
    11:00 +27°C° 0 mm 3 mps 736 mmHg 52%
    12:00 +28°C° 0 mm 3 mps 735 mmHg 50%
    13:00 +28°C° 0 mm 3 mps 735 mmHg 48%
    14:00 +28°C° 0.2 mm 4 mps 735 mmHg 49%
    15:00 +28°C° 0.2 mm 4 mps 735 mmHg 51%
    16:00 +28°C° 0.2 mm 4 mps 735 mmHg 53%
    17:00 +27°C° 0.1 mm 4 mps 735 mmHg 60%
    18:00 +25°C° 0.1 mm 3 mps 735 mmHg 67%
    19:00 +24°C° 0.1 mm 2 mps 735 mmHg 73%
    20:00 +23°C° 0 mm 2 mps 735 mmHg 77%
    21:00 +21°C° 0 mm 2 mps 735 mmHg 81%
    22:00 +20°C° 0 mm 2 mps 735 mmHg 85%
    23:00 +20°C° 0.1 mm 2 mps 735 mmHg 87%

    26 July, Thursday

    Time Temperature Precipitation Wind Pressure Humidity
    00:00 +19°C° 0.1 mm 2 mps 735 mmHg 90%
    01:00 +19°C° 0.1 mm 2 mps 735 mmHg 92%
    02:00 +19°C° 0 mm 2 mps 735 mmHg 93%
    03:00 +18°C° 0 mm 2 mps 735 mmHg 95%
    04:00 +18°C° 0 mm 2 mps 735 mmHg 96%
    05:00 +19°C° 0 mm 2 mps 735 mmHg 93%
    06:00 +20°C° 0 mm 2 mps 736 mmHg 90%
    07:00 +21°C° 0 mm 2 mps 736 mmHg 87%
    08:00 +24°C° 0.5 mm 2 mps 736 mmHg 82%
    09:00 +25°C° 0.5 mm 2 mps 736 mmHg 77%
    10:00 +26°C° 0.5 mm 2 mps 736 mmHg 72%
    11:00 +27°C° 0.8 mm 3 mps 736 mmHg 68%
    12:00 +28°C° 0.8 mm 3 mps 735 mmHg 65%
    13:00 +28°C° 0.8 mm 3 mps 735 mmHg 61%
    14:00 +29°C° 0.7 mm 3 mps 735 mmHg 61%
    15:00 +29°C° 0.7 mm 2 mps 735 mmHg 61%
    16:00 +29°C° 0.7 mm 2 mps 735 mmHg 61%
    17:00 +27°C° 0.7 mm 2 mps 735 mmHg 66%
    18:00 +26°C° 0.7 mm 2 mps 735 mmHg 71%
    19:00 +25°C° 0.7 mm 1 mps 735 mmHg 77%
    20:00 +24°C° 0.2 mm 1 mps 735 mmHg 80%
    21:00 +23°C° 0.2 mm 1 mps 735 mmHg 83%
    22:00 +22°C° 0.2 mm 1 mps 735 mmHg 86%
    23:00 +22°C° 0 mm 1 mps 735 mmHg 87%

    27 July, Friday

    Time Temperature Precipitation Wind Pressure Humidity
    00:00 +22°C° 0 mm 1 mps 735 mmHg 88%
    01:00 +21°C° 0 mm 1 mps 735 mmHg 89%
    02:00 +21°C° 0 mm 1 mps 735 mmHg 90%
    03:00 +21°C° 0 mm 1 mps 735 mmHg 91%
    04:00 +21°C° 0 mm 1 mps 735 mmHg 92%
    05:00 +22°C° 0.2 mm 1 mps 735 mmHg 88%
    06:00 +23°C° 0.2 mm 1 mps 736 mmHg 84%
    07:00 +25°C° 0.2 mm 1 mps 736 mmHg 80%
    08:00 +26°C° 1.3 mm 1 mps 736 mmHg 75%
    09:00 +27°C° 1.3 mm 1 mps 736 mmHg 69%
    10:00 +29°C° 1.3 mm 1 mps 736 mmHg 64%
    11:00 +29°C° 0.7 mm 1 mps 736 mmHg 62%
    12:00 +30°C° 0.7 mm 1 mps 735 mmHg 59%
    13:00 +30°C° 0.7 mm 2 mps 735 mmHg 57%
    14:00 +30°C° 0.9 mm 2 mps 735 mmHg 58%
    15:00 +30°C° 0.9 mm 2 mps 735 mmHg 59%
    16:00 +30°C° 0.9 mm 1 mps 735 mmHg 60%
    17:00 +28°C° 1.1 mm 1 mps 735 mmHg 66%
    18:00 +27°C° 1.1 mm 1 mps 735 mmHg 73%
    19:00 +26°C° 1.1 mm 1 mps 735 mmHg 79%
    20:00 +25°C° 0.1 mm 1 mps 735 mmHg 81%
    21:00 +24°C° 0.1 mm 1 mps 735 mmHg 83%
    22:00 +21°C° 0.1 mm 0 mps 735 mmHg 85%
    23:00 +21°C° 0 mm 0 mps 735 mmHg 86%

    28 July, Saturday

    Time Temperature Precipitation Wind Pressure Humidity
    00:00 +20°C° 0 mm 0 mps 735 mmHg 87%
    01:00 +20°C° 0 mm 0 mps 735 mmHg 88%
    02:00 +20°C° 0 mm 0 mps 735 mmHg 89%
    03:00 +22°C° 0 mm 1 mps 735 mmHg 90%
    04:00 +21°C° 0 mm 1 mps 735 mmHg 90%
    05:00 +23°C° 0 mm 1 mps 735 mmHg 87%
    06:00 +24°C° 0 mm 1 mps 735 mmHg 84%
    07:00 +25°C° 0 mm 1 mps 735 mmHg 82%
    08:00 +26°C° 0 mm 1 mps 736 mmHg 77%
    09:00 +27°C° 0 mm 1 mps 736 mmHg 73%
    10:00 +28°C° 0 mm 1 mps 736 mmHg 69%
    11:00 +28°C° 0.2 mm 1 mps 736 mmHg 67%
    12:00 +29°C° 0.2 mm 2 mps 736 mmHg 65%
    13:00 +29°C° 0.2 mm 2 mps 735 mmHg 63%
    14:00 +29°C° 0.3 mm 2 mps 735 mmHg 64%
    15:00 +29°C° 0.3 mm 2 mps 735 mmHg 65%
    16:00 +29°C° 0.3 mm 3 mps 735 mmHg 66%
    17:00 +27°C° 0.4 mm 2 mps 735 mmHg 71%
    18:00 +26°C° 0.4 mm 2 mps 736 mmHg 76%
    19:00 +25°C° 0.4 mm 2 mps 736 mmHg 81%
    20:00 +25°C° 0.8 mm 1 mps 736 mmHg 83%
    21:00 +24°C° 0.8 mm 1 mps 736 mmHg 85%
    22:00 +23°C° 0.8 mm 1 mps 736 mmHg 87%
    23:00 +23°C° 0.1 mm 1 mps 736 mmHg 87%
    Show more